TimeEDT,TemperatureF,Dew PointF,Humidity,Sea Level PressureIn,VisibilityMPH,Wind Direction,Wind SpeedMPH,Gust SpeedMPH,PrecipitationIn,Events,Conditions,WindDirDegrees,DateUTC
12:53 AM,55.9,55.0,97,30.10,10.0,Calm,Calm,-,N/A,,Overcast,0,2013-09-27 04:53:00
1:53 AM,57.0,54.0,89,30.12,10.0,Calm,Calm,-,N/A,,Overcast,0,2013-09-27 05:53:00
2:53 AM,55.9,53.1,90,30.11,10.0,NNW,3.5,-,N/A,,Overcast,340,2013-09-27 06:53:00
3:39 AM,53.6,51.8,94,30.12,2.0,NNW,4.6,-,N/A,,Partly Cloudy,330,2013-09-27 07:39:00
3:49 AM,51.8,51.8,100,30.12,10.0,NW,3.5,-,N/A,,Clear,310,2013-09-27 07:49:00
3:53 AM,52.0,50.0,93,30.12,10.0,NW,3.5,-,N/A,,Clear,320,2013-09-27 07:53:00
4:53 AM,52.0,50.0,93,30.14,10.0,NNW,4.6,-,N/A,,Overcast,330,2013-09-27 08:53:00
5:53 AM,50.0,48.0,93,30.15,10.0,Calm,Calm,-,N/A,,Clear,0,2013-09-27 09:53:00
6:53 AM,51.1,48.9,92,30.17,10.0,Calm,Calm,-,N/A,,Overcast,0,2013-09-27 10:53:00
7:53 AM,52.0,50.0,93,30.19,10.0,Calm,Calm,-,N/A,,Overcast,0,2013-09-27 11:53:00
8:13 AM,53.6,51.8,94,30.19,10.0,Calm,Calm,-,N/A,,Overcast,0,2013-09-27 12:13:00
8:53 AM,57.9,52.0,81,30.21,10.0,NW,3.5,-,N/A,,Scattered Clouds,310,2013-09-27 12:53:00
9:53 AM,62.1,50.0,65,30.22,10.0,Variable,4.6,-,N/A,,Unknown,0,2013-09-27 13:53:00
10:53 AM,66.0,50.0,56,30.22,10.0,ENE,3.5,-,N/A,,Clear,70,2013-09-27 14:53:00
11:53 AM,66.9,48.9,52,30.21,10.0,NNW,3.5,-,N/A,,Clear,340,2013-09-27 15:53:00
12:53 PM,71.1,50.0,47,30.20,10.0,Calm,Calm,-,N/A,,Scattered Clouds,0,2013-09-27 16:53:00
1:53 PM,68.0,48.0,49,30.19,10.0,Calm,Calm,-,N/A,,Mostly Cloudy,0,2013-09-27 17:53:00
2:53 PM,69.1,50.0,51,30.18,10.0,Calm,Calm,-,N/A,,Overcast,0,2013-09-27 18:53:00
3:53 PM,69.1,50.0,51,30.18,10.0,East,4.6,-,N/A,,Overcast,80,2013-09-27 19:53:00
4:53 PM,66.9,51.1,57,30.19,10.0,Variable,3.5,-,N/A,,Overcast,0,2013-09-27 20:53:00
5:53 PM,66.0,53.1,63,30.19,10.0,Calm,Calm,-,N/A,,Overcast,0,2013-09-27 21:53:00
6:53 PM,64.0,52.0,65,30.20,10.0,Calm,Calm,-,N/A,,Overcast,0,2013-09-27 22:53:00
7:53 PM,57.0,54.0,89,30.22,10.0,Calm,Calm,-,N/A,,Clear,0,2013-09-27 23:53:00
8:53 PM,55.0,53.1,93,30.23,10.0,Calm,Calm,-,N/A,,Clear,0,2013-09-28 00:53:00
9:53 PM,54.0,52.0,93,30.25,10.0,Calm,Calm,-,N/A,,Clear,0,2013-09-28 01:53:00
10:53 PM,55.0,53.1,93,30.26,10.0,Calm,Calm,-,0.01,,Overcast,0,2013-09-28 02:53:00
11:53 PM,55.0,53.1,93,30.26,10.0,Calm,Calm,-,N/A,,Overcast,0,2013-09-28 03:53:00